User: anonymous   Login
Location: Caltech
(34.1382°N, 118.1253°W)
Time: 16:23:53
(UTC-07:00)
Language:

Iridium 14 - Orbit

View from above orbital plane
View from above orbital plane
View from above satellite
View from above satellite

Ground track
Ground track

The orbit data is extracted from the following two-line orbital elements,

1 25777U 99032A   16239.39092582  .00000154  00000-0  48019-4 0  9996
2 25777  86.4004 347.1861 0002055  97.9698 326.7196 14.34220562912423
Epoch (UTC): 26 August 2016 09:22:55
Eccentricity: 0.0002055
inclination: 86.4004°
perigee height: 776 km
apogee height: 779 km
right ascension of ascending node: 347.1861°
argument of perigee: 97.9698°
revolutions per day: 14.34220562
mean anomaly at epoch: 326.7196°
orbit number at epoch: 91242

The dashed part of the orbit path shows where the satellite is in the earth's shadow,  

DLR